Sparta, TN (38583)

7:02 AM CST on February 14, 2016 (GMT -0600)
Bakers Crossroads | | Change Station
CLOSE
Current Station
Personal Weather Station
Location: Sparta, TN
Elevation: 1027 ft
Nearby Weather Stations
Active Advisory: Winter Weather Advisory

Elev 1027 ft 36.01 °N, 85.56 °W | Updated 4 seconds ago

Overcast
Overcast
26.2 °F
Feels Like 26 °F
N
2.9
Wind Variable Wind from NE
Gusts 4.9 mph

Today
High -- | Low -- °F
--% Chance of Precip.
Yesterday
High -- | Low -- °F
Precip. -- in
Pressure 30.31 in
Visibility 10.0 miles
Clouds Overcast 6500 ft
Windchill 26 °F
Dew Point 0 °F
Humidity 32%
Rainfall 0.00 in
Snow Depth Not available.
6:30 AM 5:21 PM
Waxing Crescent, 41% visible
METAR KSRB 141255Z AUTO 00000KT 10SM OVC065 M04/M13 A3031 RMK
Pressure 30.31 in
Visibility 10.0 miles
Clouds Overcast 6500 ft
Windchill 26 °F
Dew Point 0 °F
Humidity 32%
Rainfall 0.00 in
Snow Depth Not available.
6:30 AM 5:21 PM
Waxing Crescent, 41% visible
METAR KSRB 141255Z AUTO 00000KT 10SM OVC065 M04/M13 A3031 RMK

10-Day Weather Forecast

Almanac

Astronomy

Feb. 14, 2016 Rise Set
Actual Time
Civil Twilight
Nautical Twilight
Astronomical Twilight
Moon
Length of Visible Light
Length of Day
Tomorrow will be .
, % of the Moon is Illuminated

Today's Extremes

State Highs State Lows

Community

WunderPhotos

Upload Photos

1,892,777 photos uploaded!

WunderBlog® & News

Nearby

Air Quality

  Air Quality AQ Index Pollutant
Not available.

Snow Depth

Station Depth Elevation

Earthquake Activity

City Distance Mag. Time & Date
Minimum magnitude displayed is 2.5.

Coastal Water Temperatures

Place Temperature

Stations

Nearby Weather Stations

Station Location Temp. Windchill Dew Point Humidity Wind Precip. Elev Updated Type
                   

Watches & Warnings

Winter Weather Advisory
Issued: 3:57 AM CST Feb. 14, 2016 – National Weather Service

... Winter Weather Advisory remains in effect from noon today to
6 am CST Monday...

* timing... noon Sunday until 6 am CST Monday.

* Main impact... hazardous travel conditions across the advisory
area due to a wintry mix of snow... sleet and freezing rain.

* Accumulations... 1 to 2 inches of snow... with around 3 inches for
the higher elevations and along the Kentucky border. Around one
tenth of an inch of ice from freezing rain is possible.

Precautionary/preparedness actions...

A Winter Weather Advisory means that periods of snow... sleet... or
freezing rain will cause travel difficulties. Be prepared for
slippery roads and limited visibilities... and use caution while
driving.



13